{"data":{"norad_id":63464,"intl_designator":"2025-070E","name":"STARLINK-33701","alt_names":[],"object_type":"PAYLOAD","status":"ACTIVE","operator":null,"country":"US","launch_date":"2025-04-06","launch_site_code":"AFETR","launch_vehicle":null,"mission":null,"orbit_class":"UNKNOWN","rcs_meters":null,"size_class":null,"mass_kg":null,"dimensions":null,"purposes":["comms"],"wikipedia_slug":null,"has_3d_model":false,"image_url":null,"decayed_at":null,"tle_current":{"epoch":"2026-05-25T03:17:25.414944Z","epoch_age_seconds":73758,"freshness":"FRESH","line1":"1 63464U 25070E   26145.13709971  .00013481  00000+0  49846-3 0  9992","line2":"2 63464  42.9997 188.4489 0000727 266.3785  93.6983 15.27584613 64662","mean_motion":15.27584613,"eccentricity":7.27e-5,"inclination_deg":42.9997,"raan_deg":188.4489,"arg_perigee_deg":266.3785,"mean_anomaly_deg":93.6983,"bstar":0.00049846,"rev_number":6466,"period_min":94.266464046925,"perigee_km":482.53647586792,"apogee_km":483.53409031788,"semimajor_km":6861.1722830929,"source":"CELESTRAK","updated_at":"2026-05-25T13:38:20.004966Z"}}}